Tracking 35334 objects as of 12-Sep-2026
HD Live streaming from Space Station
objects crossing your sky now

STARLINK-11469

Track STARLINK-11469 now!
10-day predictions
STARLINK-11469 is classified as:


NORAD ID: 62227
Int'l Code: 2024-231K
Launch date: December 5, 2024
Source: United States (US)
Launch site: AIR FORCE WESTERN TEST RANGE (AFWTR)
Your satellite tracking list
Your tracking list is empty




NASA's NSSDC Master Catalog

Two Line Element Set (TLE):
1 62227U 24231K   26254.74122025  .00119667  00000-0  97742-3 0  9995
2 62227  53.1566 264.0482 0002403  80.5186 279.6104 15.69732905102638
Source of the keplerian elements: AFSPC